Time,TemperatureF,DewpointF,PressureIn,WindDirection,WindDirectionDegrees,WindSpeedMPH,WindSpeedGustMPH,Humidity,HourlyPrecipIn,Conditions,Clouds,dailyrainin,SoftwareType,DateUTC
2016-02-12 00:03:00,35.2,25.3,30.17,West,276,0.0,0.0,67,0.00,,,0.00,meteobridge,2016-02-12 05:03:00,
2016-02-12 00:08:00,35.1,25.5,30.17,West,276,0.0,0.0,68,0.00,,,0.00,meteobridge,2016-02-12 05:08:00,
2016-02-12 00:13:00,34.9,25.7,30.17,West,276,0.0,0.0,69,0.00,,,0.00,meteobridge,2016-02-12 05:13:00,
2016-02-12 00:18:00,34.9,26.1,30.17,West,275,0.0,0.0,70,0.00,,,0.00,meteobridge,2016-02-12 05:18:00,
2016-02-12 00:23:00,35.1,26.2,30.17,SSW,193,0.0,0.0,70,0.00,,,0.00,meteobridge,2016-02-12 05:23:00,
2016-02-12 00:28:00,35.1,26.6,30.17,South,185,0.0,0.0,71,0.00,,,0.00,meteobridge,2016-02-12 05:28:00,
2016-02-12 00:33:00,35.1,25.9,30.18,South,185,0.0,0.0,69,0.00,,,0.00,meteobridge,2016-02-12 05:33:00,
2016-02-12 00:38:00,35.1,25.9,30.18,South,185,0.0,0.0,69,0.00,,,0.00,meteobridge,2016-02-12 05:38:00,
2016-02-12 00:43:00,35.1,25.9,30.17,South,185,0.0,0.0,69,0.00,,,0.00,meteobridge,2016-02-12 05:43:00,
2016-02-12 00:48:00,35.1,26.2,30.17,South,185,0.0,0.0,70,0.00,,,0.00,meteobridge,2016-02-12 05:48:00,
2016-02-12 00:53:00,34.9,26.4,30.18,South,185,0.0,0.0,71,0.00,,,0.00,meteobridge,2016-02-12 05:53:00,
2016-02-12 00:58:00,34.5,26.1,30.18,South,185,0.0,0.0,71,0.00,,,0.00,meteobridge,2016-02-12 05:58:00,
2016-02-12 01:08:00,34.0,26.6,30.17,South,185,0.0,0.0,74,0.00,,,0.00,meteobridge,2016-02-12 06:08:00,
2016-02-12 01:13:00,33.6,25.9,30.17,South,185,0.0,0.0,73,0.00,,,0.00,meteobridge,2016-02-12 06:13:00,
2016-02-12 01:18:00,33.4,25.7,30.18,South,185,0.0,0.0,73,0.00,,,0.00,meteobridge,2016-02-12 06:18:00,
2016-02-12 01:23:00,33.1,25.7,30.17,South,185,0.0,0.0,74,0.00,,,0.00,meteobridge,2016-02-12 06:23:00,
2016-02-12 01:28:00,32.9,25.9,30.17,South,185,0.0,0.0,75,0.00,,,0.00,meteobridge,2016-02-12 06:28:00,
2016-02-12 01:33:00,32.7,26.1,30.17,South,185,0.0,0.0,76,0.00,,,0.00,meteobridge,2016-02-12 06:33:00,
2016-02-12 01:43:00,32.4,25.7,30.17,South,185,0.0,0.0,76,0.00,,,0.00,meteobridge,2016-02-12 06:43:00,
2016-02-12 01:53:00,32.2,25.7,30.17,South,185,0.0,0.0,77,0.00,,,0.00,meteobridge,2016-02-12 06:53:00,
2016-02-12 01:58:00,32.4,26.2,30.16,South,185,0.0,0.0,78,0.00,,,0.00,meteobridge,2016-02-12 06:58:00,
2016-02-12 02:03:00,32.4,26.2,30.16,South,185,0.0,0.0,78,0.00,,,0.00,meteobridge,2016-02-12 07:03:00,
2016-02-12 02:08:00,32.4,26.2,30.16,South,185,0.0,0.0,78,0.00,,,0.00,meteobridge,2016-02-12 07:08:00,